Aviation Digital Data Service (ADDS)

Output produced by METARs form (0325 UTC 21 September 2017)
found at http://www.aviationweather.gov/adds/metars/
 
VEAT 210300Z 17003KT 6000 FEW020 32/25 Q1007 NOSIG
VIAG 210230Z 05006KT 6000 FEW030 SCT100 27/25 Q1004 NOSIG
VAAH 210300Z 25005KT 3500 HZ SCT020 BKN080 28/25 Q1005 NOSIG
TAF VAAH 202300Z 2100/2206 29006KT 4000 HZ-RA SCT080 
     BECMG 2101/2103 27005KT 2000 BR-RA SCT018 SCT080 
     BECMG 2104/2106 32008KT 5000 HZ-RA SCT020 FEW025CB SCT080 
     BECMG 2112/2114 29005KT 4000 HZ -RA 
     TEMPO 2111/2115 29010G20KT 2000 -TSRA 
     BECMG 2201/2203 25003KT 2000 HZ-RA 
     BECMG 2204/2206 29008KT 5000 HZ -RA
       
VIAG 210230Z 05006KT 6000 FEW030 SCT100 27/25 Q1004 NOSIG
VIAR 210230Z VRB00KT 3500 BR SCT035 27/27 Q1005 NOSIG
TAF VIAR 202300Z 2100/2206 VRB02KT 2500 BR FEW040 
     BECMG 2104/2106 5000 HZ 
     BECMG 2117/2119 11008KT 3500 HZ BR FEW040 SCT100 
     BECMG 2200/2202 2500 BR FEW040 
     BECMG 2204/2205 4500 BR HZ
       
VIBR 210300Z 00000KT 7000 SCT035 20/17 Q1012
VICG 210230Z 12004KT 4000 HZ FEW100 SCT250 26/21 Q1006 NOSIG
VIDD 210300Z 14003KT 3000 BR FEW040 SCT100 29/26 Q1004 NOSIG
VIDN 210230Z 00000KT 2500 BR SCT080 24/22 Q1007
VIDP 210300Z 13008KT 2500 HZ FEW100 30/25 Q1005 NOSIG
TAF VIDP 202300Z 2100/2206 15008KT 2000 BR FEW040 SCT100 
     BECMG 2105/2107 4000 HZ 
     BECMG 2117/2119 09012KT 3000 HZ BR SCT030 BKN100 
     TEMPO 2120/2124 FEW040TCU 
     BECMG 2200/2202 2000 BR 
     BECMG 2204/2205 3000 BR HZ
       
VIGR 210130Z VRB01KT 5000 BR FEW015 SCT020 BKN090 25/24 Q1003 TEMPO -RA
VIJO 210030Z 27004KT 6000 SCT100 SCT250 27/20 Q1003 NOSIG
VIJP 210300Z VRB02KT 3000 HZ FEW100 29/22 Q1006 NOSIG
TAF VIJP 202300Z 2100/2206 VRB02KT 3000 HZ FEW035 SCT100 
     BECMG 2104/2106 12004KT 5000 HZ SCT035 SCT100 
     BECMG 2113/2115 VRB02KT 3000 HZ 
     TEMPO 2118/2124 1500 TSRA FEW035CB 
     BECMG 2204/2205 36003KT 5000 HZ SCT030 SCT090
       
VIJU 210230Z VRB02KT 4000 BR FEW030 SCT100 27/23 Q1005 NOSIG
VIKO 210300Z 36001KT 6000 FEW030 SCT100 29/23 Q1004 NOSIG
VILD 210300Z 09004KT 2000 BR FEW060 27/23 Q1006
VILH 210130Z 00000KT 6000 SKC 09/M04 Q1024 NOSIG RMK AC
VILK 210230Z 07006KT 3000 BR SCT010 BKN018 FEW030CB OVC090 28/27 Q1003 NOSIG
TAF VILK 202300Z 2100/2206 VRB02KT 2500 RA BR SCT015 SCT025 BKN090 
     TEMPO 2101/2108 1500 TSRA FEW030CB OVC090 
     BECMG 2105/2107 09006KT 4500 RA HZ 
     BECMG 2118/2120 VRB02KT 3000 BR -RA 
     TEMPO 2122/2204 FEW030CB OVC090 
     BECMG 2203/2205 11005KT 3500 RA HZ SCT010 SCT025 BKN090
       
VISM 210300Z 00000KT 5000 HZ FEW030 SCT040 20/12 Q1015
VISR 210230Z VRB02KT 3500 BR FEW025 16/11 Q1015 BECMG 5000M
VAAH 210300Z 25005KT 3500 HZ SCT020 BKN080 28/25 Q1005 NOSIG
TAF VAAH 202300Z 2100/2206 29006KT 4000 HZ-RA SCT080 
     BECMG 2101/2103 27005KT 2000 BR-RA SCT018 SCT080 
     BECMG 2104/2106 32008KT 5000 HZ-RA SCT020 FEW025CB SCT080 
     BECMG 2112/2114 29005KT 4000 HZ -RA 
     TEMPO 2111/2115 29010G20KT 2000 -TSRA 
     BECMG 2201/2203 25003KT 2000 HZ-RA 
     BECMG 2204/2206 29008KT 5000 HZ -RA
       
VAAU 210100Z 27004KT 2000 -DZ FEW012 SCT018 OVC080 22/22 Q1007 TEMPO 1000 HZ
VABB 210300Z 00000KT 1500 BR FEW012 SCT018 FEW030CB OVC090 25/24 Q1006 NOSIG
TAF COR VABB 202300Z 2100/2206 12005KT 2000 RA HZ SCT018 FEW025TCU OVC090 
     TEMPO 2100/2112 0800 TSRA / SHRA BKN010 FEW030CB OVC080 
     BECMG 2104/2106 20008KT 
     TEMPO 2112/2118 0800 TSRA +SHRA BKN010 FEW030CB OVC080 
     BECMG 2116/2118 13005KT 
     BECMG 2204/2206 20008KT 3000 HZ 
     TEMPO 2118/2206 1500 -TSRA -SHRA SCT012 FEW030CB OVC080
       
VABO 210300Z 20005 KT 3000 HZ SCT015 SCT020 BKN080 27/23 Q1005 NOSIG
VABP 210300Z 32010KT 4000 -DZ HZ FEW010 SCT020 BKN080 23/23 Q1006 NOSIG
VABV 210100Z 23003KT 3000 HZ FEW020 BKN080 26/25 Q1004
VAID 210000Z 29006KT 3000 HZ SCT020 BKN100 23/23 Q1006
VAJB 210100Z 00000KT 3000 HZ SCT006 SCT015 OVC080 24/23 Q1003
VAJJ 210300Z VRB05KT 3000 HZ SCT018 FEW025TCU OVC080 27/27 Q1006 NOSIG
VANP 210300Z 27002KT 2500 HZ FEW010 0SCT020 BKN100 25/24 Q1005 TEMPO 1500 IN HZ/RA
TAF VANP 202300Z 2100/2206 27005KT 3000 RA HZ SCT020 SCT025 BKN080 
     BECMG 2109/2111 31008KT SCT020 SCT025 FEW030CB BKN080 
     BECMG 2200/2202 27005KT 4000 RA HZ SCT020 SCT025 BKN100 
     TEMPO 2112/2116 33010G20KT 1500 TSRA
       
VAUD 210300Z 00000KT 6000 NSC 27/20 Q1006 NOSIG
VIAR 210230Z VRB00KT 3500 BR SCT035 27/27 Q1005 NOSIG
TAF VIAR 202300Z 2100/2206 VRB02KT 2500 BR FEW040 
     BECMG 2104/2106 5000 HZ 
     BECMG 2117/2119 11008KT 3500 HZ BR FEW040 SCT100 
     BECMG 2200/2202 2500 BR FEW040 
     BECMG 2204/2205 4500 BR HZ
       
VAAU 210100Z 27004KT 2000 -DZ FEW012 SCT018 OVC080 22/22 Q1007 TEMPO 1000 HZ
VOBG 210300Z 25012KT 8000 FEW008 SCT012 21/19 Q1013
TAF VOBG 210200Z 2103/2112 25015KT 6000 SCT012 SCT080 
     TEMPO 2109/2112 SCT012 SCT018 FEW025CB BKN080
       
VEAT 210300Z 17003KT 6000 FEW020 32/25 Q1007 NOSIG
VEBN 210300Z 11008KT 3000 BR SCT010 SCT020 FEW030CB OVC090 27/26 Q1002 NOSIG
VEBS 210300Z 19006KT 5000 HZ SCT020 FEW030CB 28/26 Q1005 TEMPO 3000 -TSRA
VECC 210300Z 18008KT 3200 HZ SCT018 FEW030CB SCT100 31/26 Q1006 NOSIG
TAF VECC 202300Z 2100/2206 17007KT 2500 -RA HZ SCT018 BKN100 
     BECMG 2103/2105 3500 -RA HZ 
     TEMPO 2106/2110 1500 TSRA SCT015 FEW25CB OVC080 
     BECMG 2118/2120 2500 -RA HZ 
     BECMG 2202/2204 3500 -RA HZ
       
VEGT 210230Z 00000KT 5000 BR SCT018 BKN100 28/27 Q1008 NOSIG
VEGY 210230Z 09008KT 3500 BR FEW018 29/25 Q1004 NOSIG
VEIM 210300Z 19003KT 3000 BR SCT008 SCT016 BKN100 24/23 Q1013 NOSIG
VEJS 210300Z 09002KT 3500 HZ SCT015 SCT025 BKN100 30/25 Q1005
VELP 210300Z 00000KT 5000 BR FEW008 SCT018 BKN100 25/24 Q1009 NOSIG
VEMN 210300Z 02008KT 3000 RA SCT008 SCT018 FEW025CB OVC090 28/26 Q1009 NOSIG
VEPT 210300Z 11010KT 2500 HZ FEW010 SCT018 BKN100 29/26 Q1004 BECMG 3000 HZ
TAF VEPT 202300Z 2100/2206 11010KT 2000 HZ/-RA FEW010 SCT015 BKN100 
     BECMG 2103/2105 14006KT 3000 HZ SCT015 FEW030CB BKN100 
     BECMG 2106/2108 4000 HZ/-RA SCT015 SCT025 FEW030CB BKN090 
     TEMPO 2109/2113 09010KT 1500 -TSRA 
     BECMG 2114/2116 00000KT 2000 HZ SCT015 BKN100 
     TEMPO 2202/2204 12010KT 1500 -TSRA 
     BECMG 2204/2206 3000 HZ SCT015 SCT025 BKN100
       
VERC 210300Z 16009KT 2500 HZ SCT015 BKN100 25/23 Q1008 NOSIG
VOBG 210300Z 25012KT 8000 FEW008 SCT012 21/19 Q1013
TAF VOBG 210200Z 2103/2112 25015KT 6000 SCT012 SCT080 
     TEMPO 2109/2112 SCT012 SCT018 FEW025CB BKN080
       
VOBL 210300Z 25012KT 9999 SCT008 22/21 Q1014 NOSIG
TAF VOBL 210200Z 2103/2112 25015KT 6000 SCT012 SCT080 
     TEMPO 2109/2112 SCT012 SCT018 FEW025CB BKN080
       
VOBM 210300Z 25006KT 8000 FEW008 SCT015 BKN080 22/22 Q1012
TAF VOBM 210200Z 2103/2112 27010KT 8000 SCT012 BKN080 
     TEMPO 2109/2112 4000 RA DZ SCT008 SCT012 BKN080
       
VOBZ 210300Z 00000KT 6000 FEW020 SCT100 28/24 Q1006 NOSIG
VOCB 210300Z 18006KT 6000 FEW015 SCT080 26/20 Q1012 NOSIG
TAF VOCB 202300Z 2100/2206 21010KT 4000 BR FEW015 BKN080 
     BECMG 2105/2106 6000 
     BECMG 2107/2108 21010G20KT 
     BECMG 2111/2112 21010KT 
     TEMPO 2112/2118 SCT015 FEW020CB BKN080 
     BECMG 2200/2201 4000 BR 
     BECMG 2205/2206 6000
       
VOCI 210300Z 10006KT 4000 HZ FEW012 SCT020 26/24 Q1010 NOSIG
TAF VOCI 202300Z 2100/2206 00000KT 3000 HZ FEW015 BKN080 
     TEMPO 2100/2102 2000 RA/BR 
     BECMG 2105/2106 27010KT 5000 HZ 
     TEMPO 2109/2113 3000 TSRA/RA SCT008 SCT015 FEW025CB KN080 
     BECMG 2116/2117 00000KT 3000 HZ 
     TEMPO 2200/2202 2000 RA/BR 
     BECMG 2205/2206 26010KT 5000 HZ
       
VOCL 210300Z 04004KT 6000 FEW008 SCT012 FEW025CB BKN080 26/20 Q1010 NOSIG
TAF VOCL 202300Z 2100/2206 25005KT 4000 HZ SCT012 SCT090 
     TEMPO 2100/2102 2000 RA/BR 
     BECMG 2104/2105 27010KT 6000 
     TEMPO 2110/2114 FEW025CB 
     BECMG 2117/2118 23005KT 5000 HZ 
     TEMPO 2200/2202 2000 RA/BR 
     BECMG 2204/2205 27010KT 6000
       
VOGO 210300Z 02010KT 6000 FEW010 SCT014 FEW022TCU BKN080 27/24 Q1008 TEMPO 4000 RA/DZ
TAF VOHB 210200Z 2103/2112 27010KT 8000 SCT012 BKN080 
     TEMPO 2109/2112 4000 RA DZ SCT008 SCT012 BKN080
       
VOHS 210300Z 22004KT 5000 BR BKN008 SCT015 BKN100 24/23 Q1009 NOSIG
TAF VOHS 202300Z 2100/2206 24008KT 5000 DZ BR SCT010 SCT015 BKN100 
     TEMPO 2100/2103 VRB03KT 3000 BR BKN010 SCT015 BKN080 
     BECMG 2103/2105 30012KT 6000 SCT020 SCT025 
     TEMPO 2108/2118 FEW030CB 
     BECMG 2116/2118 VRB03KT 5000 HZ BR SCT015 SCT100 
     TEMPO 220/2203 29006KT 3000 BR BKN010 SCT015 BKN080 
     BECMG 2203/2205 25010KT 6000 SCT020 SCT025
       
VOHY 210300Z 24008KT 4000 HZ SCT010 SCT015 BKN100 25/23 Q1009 NOSIG
VOMD 210300Z 29004KT 6000 FEW020 30/21 Q1010 NOSIG
TAF VOMD 202300Z 2100/2206 27010KT 4000 BR FEW018 SCT100 
     BECMG 2103/2104 27010G20KT 6000 
     BECMG 2111/2112 27010KT 
     TEMPO 2112/2118 SCT018 FEW025CB BKN080 
     BECMG 2121/2122 4000 BR 
     BECMG 2203/2204 27010G20KT 6000
       
VOML 210300Z 05003KT 3000 BR FEW004 SCT012 FEW025CB 24/23 Q1009 BECMG 5000 BR
TAF VOML 210200Z 2103/2112 11005KT 6000 SCT012 SCT080 
     BECMG 2105/2106 25010KT 
     TEMPO 2109/2112 3000 TSRA RA SCT008 SCT012 FEW025CB BKN080
       
VOMM 210300Z 26011KT 8000 FEW020 31/21 Q1008 NOSIG
TAF VOMM 202300Z 2100/2206 27010KT 4000 BR FEW020 SCT100 
     BECMG 2103/2104 6000 
     TEMPO 2112/2118 4000 -TSRA/RA SCT018 FEW025CB BKN080 
     BECMG 2121/2122 4000 BR 
     BECMG 2203/2204 6000
       
TAF VOMY 210200Z 2103/2112 25015KT 6000 SCT012 SCT080 
     TEMPO 2109/2112 SCT012 SCT018 FEW025CB
       
VORY 210300Z 32005KT 6000 SCT020 BKN100 29/23 Q1006 NOSIG
VOTK 210300Z 27006KT 7000 FEW020 30/22 Q1010
VOTP 210300Z 23005KT 7000 FEW020 29/21 Q1008
VOTR 210300Z 28012G22KT 5000 HZ FEW016 28/19 Q1008 NOSIG
TAF VOTR 202300Z 2100/2206 29010KT 4000 BR FEW018 SCT100 
     BECMG 2104/2105 6000 
     BECMG 2106/2107 29010G25KT 
     TEMPO 2112/2118 SCT018 FEW025CB BKN080 
     BECMG 2116/2117 29010KT 
     BECMG 2121/2122 4000 BR 
     BECMG 2204/2205 6000
       
VOTV 210300Z VRB03KT 4000 HZ FEW010 SCT015 FEW025TCU 27/25 Q1010 NOSIG
TAF VOTV 202300Z 2100/2206 29005KT 3000 RA/HZ SCT015 BKN080 
     TEMPO 2100/2102 2000 RA/BR 
     BECMG 2105/2106 29010KT 5000 HZ 
     TEMPO 2108/2112 3000 TSRA/RA SCT008 SCT015 FEW025CB BKN080 
     BECMG 2116/2117 30005KT 3000 HZ 
     TEMPO 2200/2202 2000 RA/BR 
     BECMG 2205/2206 29010KT 5000 HZ
       
VOVZ 210300Z 27008KT 6000 FEW018 BKN090 29/26 Q1005 NOSIG
VIAG 210230Z 05006KT 6000 FEW030 SCT100 27/25 Q1004 NOSIG
VIAR 210230Z VRB00KT 3500 BR SCT035 27/27 Q1005 NOSIG
TAF VIAR 202300Z 2100/2206 VRB02KT 2500 BR FEW040 
     BECMG 2104/2106 5000 HZ 
     BECMG 2117/2119 11008KT 3500 HZ BR FEW040 SCT100 
     BECMG 2200/2202 2500 BR FEW040 
     BECMG 2204/2205 4500 BR HZ
       
VIBR 210300Z 00000KT 7000 SCT035 20/17 Q1012
VICG 210230Z 12004KT 4000 HZ FEW100 SCT250 26/21 Q1006 NOSIG
VIDD 210300Z 14003KT 3000 BR FEW040 SCT100 29/26 Q1004 NOSIG
VIDN 210230Z 00000KT 2500 BR SCT080 24/22 Q1007
VIDP 210300Z 13008KT 2500 HZ FEW100 30/25 Q1005 NOSIG
TAF VIDP 202300Z 2100/2206 15008KT 2000 BR FEW040 SCT100 
     BECMG 2105/2107 4000 HZ 
     BECMG 2117/2119 09012KT 3000 HZ BR SCT030 BKN100 
     TEMPO 2120/2124 FEW040TCU 
     BECMG 2200/2202 2000 BR 
     BECMG 2204/2205 3000 BR HZ
       
VIGR 210130Z VRB01KT 5000 BR FEW015 SCT020 BKN090 25/24 Q1003 TEMPO -RA
VIJO 210030Z 27004KT 6000 SCT100 SCT250 27/20 Q1003 NOSIG
VIJP 210300Z VRB02KT 3000 HZ FEW100 29/22 Q1006 NOSIG
TAF VIJP 202300Z 2100/2206 VRB02KT 3000 HZ FEW035 SCT100 
     BECMG 2104/2106 12004KT 5000 HZ SCT035 SCT100 
     BECMG 2113/2115 VRB02KT 3000 HZ 
     TEMPO 2118/2124 1500 TSRA FEW035CB 
     BECMG 2204/2205 36003KT 5000 HZ SCT030 SCT090
       
VIJU 210230Z VRB02KT 4000 BR FEW030 SCT100 27/23 Q1005 NOSIG
VIKO 210300Z 36001KT 6000 FEW030 SCT100 29/23 Q1004 NOSIG
VILD 210300Z 09004KT 2000 BR FEW060 27/23 Q1006
VILH 210130Z 00000KT 6000 SKC 09/M04 Q1024 NOSIG RMK AC
VILK 210230Z 07006KT 3000 BR SCT010 BKN018 FEW030CB OVC090 28/27 Q1003 NOSIG
TAF VILK 202300Z 2100/2206 VRB02KT 2500 RA BR SCT015 SCT025 BKN090 
     TEMPO 2101/2108 1500 TSRA FEW030CB OVC090 
     BECMG 2105/2107 09006KT 4500 RA HZ 
     BECMG 2118/2120 VRB02KT 3000 BR -RA 
     TEMPO 2122/2204 FEW030CB OVC090 
     BECMG 2203/2205 11005KT 3500 RA HZ SCT010 SCT025 BKN090
       
VISM 210300Z 00000KT 5000 HZ FEW030 SCT040 20/12 Q1015
VISR 210230Z VRB02KT 3500 BR FEW025 16/11 Q1015 BECMG 5000M
VABV 210100Z 23003KT 3000 HZ FEW020 BKN080 26/25 Q1004
VABP 210300Z 32010KT 4000 -DZ HZ FEW010 SCT020 BKN080 23/23 Q1006 NOSIG
VEBS 210300Z 19006KT 5000 HZ SCT020 FEW030CB 28/26 Q1005 TEMPO 3000 -TSRA
VERC 210300Z 16009KT 2500 HZ SCT015 BKN100 25/23 Q1008 NOSIG
VOCL 210300Z 04004KT 6000 FEW008 SCT012 FEW025CB BKN080 26/20 Q1010 NOSIG
TAF VOCL 202300Z 2100/2206 25005KT 4000 HZ SCT012 SCT090 
     TEMPO 2100/2102 2000 RA/BR 
     BECMG 2104/2105 27010KT 6000 
     TEMPO 2110/2114 FEW025CB 
     BECMG 2117/2118 23005KT 5000 HZ 
     TEMPO 2200/2202 2000 RA/BR 
     BECMG 2204/2205 27010KT 6000
       
VICG 210230Z 12004KT 4000 HZ FEW100 SCT250 26/21 Q1006 NOSIG
VOMM 210300Z 26011KT 8000 FEW020 31/21 Q1008 NOSIG
TAF VOMM 202300Z 2100/2206 27010KT 4000 BR FEW020 SCT100 
     BECMG 2103/2104 6000 
     TEMPO 2112/2118 4000 -TSRA/RA SCT018 FEW025CB BKN080 
     BECMG 2121/2122 4000 BR 
     BECMG 2203/2204 6000
       
VABB 210300Z 00000KT 1500 BR FEW012 SCT018 FEW030CB OVC090 25/24 Q1006 NOSIG
TAF COR VABB 202300Z 2100/2206 12005KT 2000 RA HZ SCT018 FEW025TCU OVC090 
     TEMPO 2100/2112 0800 TSRA / SHRA BKN010 FEW030CB OVC080 
     BECMG 2104/2106 20008KT 
     TEMPO 2112/2118 0800 TSRA +SHRA BKN010 FEW030CB OVC080 
     BECMG 2116/2118 13005KT 
     BECMG 2204/2206 20008KT 3000 HZ 
     TEMPO 2118/2206 1500 -TSRA -SHRA SCT012 FEW030CB OVC080
       
VOCI 210300Z 10006KT 4000 HZ FEW012 SCT020 26/24 Q1010 NOSIG
TAF VOCI 202300Z 2100/2206 00000KT 3000 HZ FEW015 BKN080 
     TEMPO 2100/2102 2000 RA/BR 
     BECMG 2105/2106 27010KT 5000 HZ 
     TEMPO 2109/2113 3000 TSRA/RA SCT008 SCT015 FEW025CB KN080 
     BECMG 2116/2117 00000KT 3000 HZ 
     TEMPO 2200/2202 2000 RA/BR 
     BECMG 2205/2206 26010KT 5000 HZ
       
VOCB 210300Z 18006KT 6000 FEW015 SCT080 26/20 Q1012 NOSIG
TAF VOCB 202300Z 2100/2206 21010KT 4000 BR FEW015 BKN080 
     BECMG 2105/2106 6000 
     BECMG 2107/2108 21010G20KT 
     BECMG 2111/2112 21010KT 
     TEMPO 2112/2118 SCT015 FEW020CB BKN080 
     BECMG 2200/2201 4000 BR 
     BECMG 2205/2206 6000
       
VIDN 210230Z 00000KT 2500 BR SCT080 24/22 Q1007
VAID 210000Z 29006KT 3000 HZ SCT020 BKN100 23/23 Q1006
VEMN 210300Z 02008KT 3000 RA SCT008 SCT018 FEW025CB OVC090 28/26 Q1009 NOSIG
VEAT 210300Z 17003KT 6000 FEW020 32/25 Q1007 NOSIG
VEBN 210300Z 11008KT 3000 BR SCT010 SCT020 FEW030CB OVC090 27/26 Q1002 NOSIG
VEBS 210300Z 19006KT 5000 HZ SCT020 FEW030CB 28/26 Q1005 TEMPO 3000 -TSRA
VECC 210300Z 18008KT 3200 HZ SCT018 FEW030CB SCT100 31/26 Q1006 NOSIG
TAF VECC 202300Z 2100/2206 17007KT 2500 -RA HZ SCT018 BKN100 
     BECMG 2103/2105 3500 -RA HZ 
     TEMPO 2106/2110 1500 TSRA SCT015 FEW25CB OVC080 
     BECMG 2118/2120 2500 -RA HZ 
     BECMG 2202/2204 3500 -RA HZ
       
VEGT 210230Z 00000KT 5000 BR SCT018 BKN100 28/27 Q1008 NOSIG
VEGY 210230Z 09008KT 3500 BR FEW018 29/25 Q1004 NOSIG
VEIM 210300Z 19003KT 3000 BR SCT008 SCT016 BKN100 24/23 Q1013 NOSIG
VEJS 210300Z 09002KT 3500 HZ SCT015 SCT025 BKN100 30/25 Q1005
VELP 210300Z 00000KT 5000 BR FEW008 SCT018 BKN100 25/24 Q1009 NOSIG
VEMN 210300Z 02008KT 3000 RA SCT008 SCT018 FEW025CB OVC090 28/26 Q1009 NOSIG
VEPT 210300Z 11010KT 2500 HZ FEW010 SCT018 BKN100 29/26 Q1004 BECMG 3000 HZ
TAF VEPT 202300Z 2100/2206 11010KT 2000 HZ/-RA FEW010 SCT015 BKN100 
     BECMG 2103/2105 14006KT 3000 HZ SCT015 FEW030CB BKN100 
     BECMG 2106/2108 4000 HZ/-RA SCT015 SCT025 FEW030CB BKN090 
     TEMPO 2109/2113 09010KT 1500 -TSRA 
     BECMG 2114/2116 00000KT 2000 HZ SCT015 BKN100 
     TEMPO 2202/2204 12010KT 1500 -TSRA 
     BECMG 2204/2206 3000 HZ SCT015 SCT025 BKN100
       
VERC 210300Z 16009KT 2500 HZ SCT015 BKN100 25/23 Q1008 NOSIG
VAAH 210300Z 25005KT 3500 HZ SCT020 BKN080 28/25 Q1005 NOSIG
TAF VAAH 202300Z 2100/2206 29006KT 4000 HZ-RA SCT080 
     BECMG 2101/2103 27005KT 2000 BR-RA SCT018 SCT080 
     BECMG 2104/2106 32008KT 5000 HZ-RA SCT020 FEW025CB SCT080 
     BECMG 2112/2114 29005KT 4000 HZ -RA 
     TEMPO 2111/2115 29010G20KT 2000 -TSRA 
     BECMG 2201/2203 25003KT 2000 HZ-RA 
     BECMG 2204/2206 29008KT 5000 HZ -RA
       
VAAU 210100Z 27004KT 2000 -DZ FEW012 SCT018 OVC080 22/22 Q1007 TEMPO 1000 HZ
VABB 210300Z 00000KT 1500 BR FEW012 SCT018 FEW030CB OVC090 25/24 Q1006 NOSIG
TAF COR VABB 202300Z 2100/2206 12005KT 2000 RA HZ SCT018 FEW025TCU OVC090 
     TEMPO 2100/2112 0800 TSRA / SHRA BKN010 FEW030CB OVC080 
     BECMG 2104/2106 20008KT 
     TEMPO 2112/2118 0800 TSRA +SHRA BKN010 FEW030CB OVC080 
     BECMG 2116/2118 13005KT 
     BECMG 2204/2206 20008KT 3000 HZ 
     TEMPO 2118/2206 1500 -TSRA -SHRA SCT012 FEW030CB OVC080
       
VABO 210300Z 20005 KT 3000 HZ SCT015 SCT020 BKN080 27/23 Q1005 NOSIG
VABP 210300Z 32010KT 4000 -DZ HZ FEW010 SCT020 BKN080 23/23 Q1006 NOSIG
VABV 210100Z 23003KT 3000 HZ FEW020 BKN080 26/25 Q1004
VAID 210000Z 29006KT 3000 HZ SCT020 BKN100 23/23 Q1006
VAJB 210100Z 00000KT 3000 HZ SCT006 SCT015 OVC080 24/23 Q1003
VAJJ 210300Z VRB05KT 3000 HZ SCT018 FEW025TCU OVC080 27/27 Q1006 NOSIG
VANP 210300Z 27002KT 2500 HZ FEW010 0SCT020 BKN100 25/24 Q1005 TEMPO 1500 IN HZ/RA
TAF VANP 202300Z 2100/2206 27005KT 3000 RA HZ SCT020 SCT025 BKN080 
     BECMG 2109/2111 31008KT SCT020 SCT025 FEW030CB BKN080 
     BECMG 2200/2202 27005KT 4000 RA HZ SCT020 SCT025 BKN100 
     TEMPO 2112/2116 33010G20KT 1500 TSRA
       
VAUD 210300Z 00000KT 6000 NSC 27/20 Q1006 NOSIG
VIAG 210230Z 05006KT 6000 FEW030 SCT100 27/25 Q1004 NOSIG
VIAR 210230Z VRB00KT 3500 BR SCT035 27/27 Q1005 NOSIG
TAF VIAR 202300Z 2100/2206 VRB02KT 2500 BR FEW040 
     BECMG 2104/2106 5000 HZ 
     BECMG 2117/2119 11008KT 3500 HZ BR FEW040 SCT100 
     BECMG 2200/2202 2500 BR FEW040 
     BECMG 2204/2205 4500 BR HZ
       
VIBR 210300Z 00000KT 7000 SCT035 20/17 Q1012
VICG 210230Z 12004KT 4000 HZ FEW100 SCT250 26/21 Q1006 NOSIG
VIDD 210300Z 14003KT 3000 BR FEW040 SCT100 29/26 Q1004 NOSIG
VIDN 210230Z 00000KT 2500 BR SCT080 24/22 Q1007
VIDP 210300Z 13008KT 2500 HZ FEW100 30/25 Q1005 NOSIG
TAF VIDP 202300Z 2100/2206 15008KT 2000 BR FEW040 SCT100 
     BECMG 2105/2107 4000 HZ 
     BECMG 2117/2119 09012KT 3000 HZ BR SCT030 BKN100 
     TEMPO 2120/2124 FEW040TCU 
     BECMG 2200/2202 2000 BR 
     BECMG 2204/2205 3000 BR HZ
       
VIGR 210130Z VRB01KT 5000 BR FEW015 SCT020 BKN090 25/24 Q1003 TEMPO -RA
VIJO 210030Z 27004KT 6000 SCT100 SCT250 27/20 Q1003 NOSIG
VIJP 210300Z VRB02KT 3000 HZ FEW100 29/22 Q1006 NOSIG
TAF VIJP 202300Z 2100/2206 VRB02KT 3000 HZ FEW035 SCT100 
     BECMG 2104/2106 12004KT 5000 HZ SCT035 SCT100 
     BECMG 2113/2115 VRB02KT 3000 HZ 
     TEMPO 2118/2124 1500 TSRA FEW035CB 
     BECMG 2204/2205 36003KT 5000 HZ SCT030 SCT090
       
VIJU 210230Z VRB02KT 4000 BR FEW030 SCT100 27/23 Q1005 NOSIG
VIKO 210300Z 36001KT 6000 FEW030 SCT100 29/23 Q1004 NOSIG
VILD 210300Z 09004KT 2000 BR FEW060 27/23 Q1006
VILH 210130Z 00000KT 6000 SKC 09/M04 Q1024 NOSIG RMK AC
VILK 210230Z 07006KT 3000 BR SCT010 BKN018 FEW030CB OVC090 28/27 Q1003 NOSIG
TAF VILK 202300Z 2100/2206 VRB02KT 2500 RA BR SCT015 SCT025 BKN090 
     TEMPO 2101/2108 1500 TSRA FEW030CB OVC090 
     BECMG 2105/2107 09006KT 4500 RA HZ 
     BECMG 2118/2120 VRB02KT 3000 BR -RA 
     TEMPO 2122/2204 FEW030CB OVC090 
     BECMG 2203/2205 11005KT 3500 RA HZ SCT010 SCT025 BKN090
       
VISM 210300Z 00000KT 5000 HZ FEW030 SCT040 20/12 Q1015
VISR 210230Z VRB02KT 3500 BR FEW025 16/11 Q1015 BECMG 5000M
VEAT 210300Z 17003KT 6000 FEW020 32/25 Q1007 NOSIG
VEBN 210300Z 11008KT 3000 BR SCT010 SCT020 FEW030CB OVC090 27/26 Q1002 NOSIG
VEBS 210300Z 19006KT 5000 HZ SCT020 FEW030CB 28/26 Q1005 TEMPO 3000 -TSRA
VECC 210300Z 18008KT 3200 HZ SCT018 FEW030CB SCT100 31/26 Q1006 NOSIG
TAF VECC 202300Z 2100/2206 17007KT 2500 -RA HZ SCT018 BKN100 
     BECMG 2103/2105 3500 -RA HZ 
     TEMPO 2106/2110 1500 TSRA SCT015 FEW25CB OVC080 
     BECMG 2118/2120 2500 -RA HZ 
     BECMG 2202/2204 3500 -RA HZ
       
VEGT 210230Z 00000KT 5000 BR SCT018 BKN100 28/27 Q1008 NOSIG
VEGY 210230Z 09008KT 3500 BR FEW018 29/25 Q1004 NOSIG
VEIM 210300Z 19003KT 3000 BR SCT008 SCT016 BKN100 24/23 Q1013 NOSIG
VEJS 210300Z 09002KT 3500 HZ SCT015 SCT025 BKN100 30/25 Q1005
VELP 210300Z 00000KT 5000 BR FEW008 SCT018 BKN100 25/24 Q1009 NOSIG
VEMN 210300Z 02008KT 3000 RA SCT008 SCT018 FEW025CB OVC090 28/26 Q1009 NOSIG
VEPT 210300Z 11010KT 2500 HZ FEW010 SCT018 BKN100 29/26 Q1004 BECMG 3000 HZ
TAF VEPT 202300Z 2100/2206 11010KT 2000 HZ/-RA FEW010 SCT015 BKN100 
     BECMG 2103/2105 14006KT 3000 HZ SCT015 FEW030CB BKN100 
     BECMG 2106/2108 4000 HZ/-RA SCT015 SCT025 FEW030CB BKN090 
     TEMPO 2109/2113 09010KT 1500 -TSRA 
     BECMG 2114/2116 00000KT 2000 HZ SCT015 BKN100 
     TEMPO 2202/2204 12010KT 1500 -TSRA 
     BECMG 2204/2206 3000 HZ SCT015 SCT025 BKN100
       
VERC 210300Z 16009KT 2500 HZ SCT015 BKN100 25/23 Q1008 NOSIG
VEGT 210230Z 00000KT 5000 BR SCT018 BKN100 28/27 Q1008 NOSIG
VIGR 210130Z VRB01KT 5000 BR FEW015 SCT020 BKN090 25/24 Q1003 TEMPO -RA
VOBG 210300Z 25012KT 8000 FEW008 SCT012 21/19 Q1013
TAF VOBG 210200Z 2103/2112 25015KT 6000 SCT012 SCT080 
     TEMPO 2109/2112 SCT012 SCT018 FEW025CB BKN080
       
VOBL 210300Z 25012KT 9999 SCT008 22/21 Q1014 NOSIG
TAF VOBL 210200Z 2103/2112 25015KT 6000 SCT012 SCT080 
     TEMPO 2109/2112 SCT012 SCT018 FEW025CB BKN080
       
VOBM 210300Z 25006KT 8000 FEW008 SCT015 BKN080 22/22 Q1012
TAF VOBM 210200Z 2103/2112 27010KT 8000 SCT012 BKN080 
     TEMPO 2109/2112 4000 RA DZ SCT008 SCT012 BKN080
       
VOBZ 210300Z 00000KT 6000 FEW020 SCT100 28/24 Q1006 NOSIG
VOCB 210300Z 18006KT 6000 FEW015 SCT080 26/20 Q1012 NOSIG
TAF VOCB 202300Z 2100/2206 21010KT 4000 BR FEW015 BKN080 
     BECMG 2105/2106 6000 
     BECMG 2107/2108 21010G20KT 
     BECMG 2111/2112 21010KT 
     TEMPO 2112/2118 SCT015 FEW020CB BKN080 
     BECMG 2200/2201 4000 BR 
     BECMG 2205/2206 6000
       
VOCI 210300Z 10006KT 4000 HZ FEW012 SCT020 26/24 Q1010 NOSIG
TAF VOCI 202300Z 2100/2206 00000KT 3000 HZ FEW015 BKN080 
     TEMPO 2100/2102 2000 RA/BR 
     BECMG 2105/2106 27010KT 5000 HZ 
     TEMPO 2109/2113 3000 TSRA/RA SCT008 SCT015 FEW025CB KN080 
     BECMG 2116/2117 00000KT 3000 HZ 
     TEMPO 2200/2202 2000 RA/BR 
     BECMG 2205/2206 26010KT 5000 HZ
       
VOCL 210300Z 04004KT 6000 FEW008 SCT012 FEW025CB BKN080 26/20 Q1010 NOSIG
TAF VOCL 202300Z 2100/2206 25005KT 4000 HZ SCT012 SCT090 
     TEMPO 2100/2102 2000 RA/BR 
     BECMG 2104/2105 27010KT 6000 
     TEMPO 2110/2114 FEW025CB 
     BECMG 2117/2118 23005KT 5000 HZ 
     TEMPO 2200/2202 2000 RA/BR 
     BECMG 2204/2205 27010KT 6000
       
VOGO 210300Z 02010KT 6000 FEW010 SCT014 FEW022TCU BKN080 27/24 Q1008 TEMPO 4000 RA/DZ
TAF VOHB 210200Z 2103/2112 27010KT 8000 SCT012 BKN080 
     TEMPO 2109/2112 4000 RA DZ SCT008 SCT012 BKN080
       
VOHS 210300Z 22004KT 5000 BR BKN008 SCT015 BKN100 24/23 Q1009 NOSIG
TAF VOHS 202300Z 2100/2206 24008KT 5000 DZ BR SCT010 SCT015 BKN100 
     TEMPO 2100/2103 VRB03KT 3000 BR BKN010 SCT015 BKN080 
     BECMG 2103/2105 30012KT 6000 SCT020 SCT025 
     TEMPO 2108/2118 FEW030CB 
     BECMG 2116/2118 VRB03KT 5000 HZ BR SCT015 SCT100 
     TEMPO 220/2203 29006KT 3000 BR BKN010 SCT015 BKN080 
     BECMG 2203/2205 25010KT 6000 SCT020 SCT025
       
VOHY 210300Z 24008KT 4000 HZ SCT010 SCT015 BKN100 25/23 Q1009 NOSIG
VOMD 210300Z 29004KT 6000 FEW020 30/21 Q1010 NOSIG
TAF VOMD 202300Z 2100/2206 27010KT 4000 BR FEW018 SCT100 
     BECMG 2103/2104 27010G20KT 6000 
     BECMG 2111/2112 27010KT 
     TEMPO 2112/2118 SCT018 FEW025CB BKN080 
     BECMG 2121/2122 4000 BR 
     BECMG 2203/2204 27010G20KT 6000
       
VOML 210300Z 05003KT 3000 BR FEW004 SCT012 FEW025CB 24/23 Q1009 BECMG 5000 BR
TAF VOML 210200Z 2103/2112 11005KT 6000 SCT012 SCT080 
     BECMG 2105/2106 25010KT 
     TEMPO 2109/2112 3000 TSRA RA SCT008 SCT012 FEW025CB BKN080
       
VOMM 210300Z 26011KT 8000 FEW020 31/21 Q1008 NOSIG
TAF VOMM 202300Z 2100/2206 27010KT 4000 BR FEW020 SCT100 
     BECMG 2103/2104 6000 
     TEMPO 2112/2118 4000 -TSRA/RA SCT018 FEW025CB BKN080 
     BECMG 2121/2122 4000 BR 
     BECMG 2203/2204 6000
       
TAF VOMY 210200Z 2103/2112 25015KT 6000 SCT012 SCT080 
     TEMPO 2109/2112 SCT012 SCT018 FEW025CB
       
VORY 210300Z 32005KT 6000 SCT020 BKN100 29/23 Q1006 NOSIG
VOTK 210300Z 27006KT 7000 FEW020 30/22 Q1010
VOTP 210300Z 23005KT 7000 FEW020 29/21 Q1008
VOTR 210300Z 28012G22KT 5000 HZ FEW016 28/19 Q1008 NOSIG
TAF VOTR 202300Z 2100/2206 29010KT 4000 BR FEW018 SCT100 
     BECMG 2104/2105 6000 
     BECMG 2106/2107 29010G25KT 
     TEMPO 2112/2118 SCT018 FEW025CB BKN080 
     BECMG 2116/2117 29010KT 
     BECMG 2121/2122 4000 BR 
     BECMG 2204/2205 6000
       
VOTV 210300Z VRB03KT 4000 HZ FEW010 SCT015 FEW025TCU 27/25 Q1010 NOSIG
TAF VOTV 202300Z 2100/2206 29005KT 3000 RA/HZ SCT015 BKN080 
     TEMPO 2100/2102 2000 RA/BR 
     BECMG 2105/2106 29010KT 5000 HZ 
     TEMPO 2108/2112 3000 TSRA/RA SCT008 SCT015 FEW025CB BKN080 
     BECMG 2116/2117 30005KT 3000 HZ 
     TEMPO 2200/2202 2000 RA/BR 
     BECMG 2205/2206 29010KT 5000 HZ
       
VOVZ 210300Z 27008KT 6000 FEW018 BKN090 29/26 Q1005 NOSIG
VIAG 210230Z 05006KT 6000 FEW030 SCT100 27/25 Q1004 NOSIG
VIAR 210230Z VRB00KT 3500 BR SCT035 27/27 Q1005 NOSIG
TAF VIAR 202300Z 2100/2206 VRB02KT 2500 BR FEW040 
     BECMG 2104/2106 5000 HZ 
     BECMG 2117/2119 11008KT 3500 HZ BR FEW040 SCT100 
     BECMG 2200/2202 2500 BR FEW040 
     BECMG 2204/2205 4500 BR HZ
       
VIBR 210300Z 00000KT 7000 SCT035 20/17 Q1012
VICG 210230Z 12004KT 4000 HZ FEW100 SCT250 26/21 Q1006 NOSIG
VIDD 210300Z 14003KT 3000 BR FEW040 SCT100 29/26 Q1004 NOSIG
VIDN 210230Z 00000KT 2500 BR SCT080 24/22 Q1007
VIDP 210300Z 13008KT 2500 HZ FEW100 30/25 Q1005 NOSIG
TAF VIDP 202300Z 2100/2206 15008KT 2000 BR FEW040 SCT100 
     BECMG 2105/2107 4000 HZ 
     BECMG 2117/2119 09012KT 3000 HZ BR SCT030 BKN100 
     TEMPO 2120/2124 FEW040TCU 
     BECMG 2200/2202 2000 BR 
     BECMG 2204/2205 3000 BR HZ
       
VIGR 210130Z VRB01KT 5000 BR FEW015 SCT020 BKN090 25/24 Q1003 TEMPO -RA
VIJO 210030Z 27004KT 6000 SCT100 SCT250 27/20 Q1003 NOSIG
VIJP 210300Z VRB02KT 3000 HZ FEW100 29/22 Q1006 NOSIG
TAF VIJP 202300Z 2100/2206 VRB02KT 3000 HZ FEW035 SCT100 
     BECMG 2104/2106 12004KT 5000 HZ SCT035 SCT100 
     BECMG 2113/2115 VRB02KT 3000 HZ 
     TEMPO 2118/2124 1500 TSRA FEW035CB 
     BECMG 2204/2205 36003KT 5000 HZ SCT030 SCT090
       
VIJU 210230Z VRB02KT 4000 BR FEW030 SCT100 27/23 Q1005 NOSIG
VIKO 210300Z 36001KT 6000 FEW030 SCT100 29/23 Q1004 NOSIG
VILD 210300Z 09004KT 2000 BR FEW060 27/23 Q1006
VILH 210130Z 00000KT 6000 SKC 09/M04 Q1024 NOSIG RMK AC
VILK 210230Z 07006KT 3000 BR SCT010 BKN018 FEW030CB OVC090 28/27 Q1003 NOSIG
TAF VILK 202300Z 2100/2206 VRB02KT 2500 RA BR SCT015 SCT025 BKN090 
     TEMPO 2101/2108 1500 TSRA FEW030CB OVC090 
     BECMG 2105/2107 09006KT 4500 RA HZ 
     BECMG 2118/2120 VRB02KT 3000 BR -RA 
     TEMPO 2122/2204 FEW030CB OVC090 
     BECMG 2203/2205 11005KT 3500 RA HZ SCT010 SCT025 BKN090
       
VISM 210300Z 00000KT 5000 HZ FEW030 SCT040 20/12 Q1015
VISR 210230Z VRB02KT 3500 BR FEW025 16/11 Q1015 BECMG 5000M
VIAG 210230Z 05006KT 6000 FEW030 SCT100 27/25 Q1004 NOSIG
VIAR 210230Z VRB00KT 3500 BR SCT035 27/27 Q1005 NOSIG
TAF VIAR 202300Z 2100/2206 VRB02KT 2500 BR FEW040 
     BECMG 2104/2106 5000 HZ 
     BECMG 2117/2119 11008KT 3500 HZ BR FEW040 SCT100 
     BECMG 2200/2202 2500 BR FEW040 
     BECMG 2204/2205 4500 BR HZ
       
VIBR 210300Z 00000KT 7000 SCT035 20/17 Q1012
VICG 210230Z 12004KT 4000 HZ FEW100 SCT250 26/21 Q1006 NOSIG
VIDD 210300Z 14003KT 3000 BR FEW040 SCT100 29/26 Q1004 NOSIG
VIDN 210230Z 00000KT 2500 BR SCT080 24/22 Q1007
VIDP 210300Z 13008KT 2500 HZ FEW100 30/25 Q1005 NOSIG
TAF VIDP 202300Z 2100/2206 15008KT 2000 BR FEW040 SCT100 
     BECMG 2105/2107 4000 HZ 
     BECMG 2117/2119 09012KT 3000 HZ BR SCT030 BKN100 
     TEMPO 2120/2124 FEW040TCU 
     BECMG 2200/2202 2000 BR 
     BECMG 2204/2205 3000 BR HZ
       
VIGR 210130Z VRB01KT 5000 BR FEW015 SCT020 BKN090 25/24 Q1003 TEMPO -RA
VIJO 210030Z 27004KT 6000 SCT100 SCT250 27/20 Q1003 NOSIG
VIJP 210300Z VRB02KT 3000 HZ FEW100 29/22 Q1006 NOSIG
TAF VIJP 202300Z 2100/2206 VRB02KT 3000 HZ FEW035 SCT100 
     BECMG 2104/2106 12004KT 5000 HZ SCT035 SCT100 
     BECMG 2113/2115 VRB02KT 3000 HZ 
     TEMPO 2118/2124 1500 TSRA FEW035CB 
     BECMG 2204/2205 36003KT 5000 HZ SCT030 SCT090
       
VIJU 210230Z VRB02KT 4000 BR FEW030 SCT100 27/23 Q1005 NOSIG
VIKO 210300Z 36001KT 6000 FEW030 SCT100 29/23 Q1004 NOSIG
VILD 210300Z 09004KT 2000 BR FEW060 27/23 Q1006
VILH 210130Z 00000KT 6000 SKC 09/M04 Q1024 NOSIG RMK AC
VILK 210230Z 07006KT 3000 BR SCT010 BKN018 FEW030CB OVC090 28/27 Q1003 NOSIG
TAF VILK 202300Z 2100/2206 VRB02KT 2500 RA BR SCT015 SCT025 BKN090 
     TEMPO 2101/2108 1500 TSRA FEW030CB OVC090 
     BECMG 2105/2107 09006KT 4500 RA HZ 
     BECMG 2118/2120 VRB02KT 3000 BR -RA 
     TEMPO 2122/2204 FEW030CB OVC090 
     BECMG 2203/2205 11005KT 3500 RA HZ SCT010 SCT025 BKN090
       
VISM 210300Z 00000KT 5000 HZ FEW030 SCT040 20/12 Q1015
VISR 210230Z VRB02KT 3500 BR FEW025 16/11 Q1015 BECMG 5000M
VEAT 210300Z 17003KT 6000 FEW020 32/25 Q1007 NOSIG
VEBN 210300Z 11008KT 3000 BR SCT010 SCT020 FEW030CB OVC090 27/26 Q1002 NOSIG
VEBS 210300Z 19006KT 5000 HZ SCT020 FEW030CB 28/26 Q1005 TEMPO 3000 -TSRA
VECC 210300Z 18008KT 3200 HZ SCT018 FEW030CB SCT100 31/26 Q1006 NOSIG
TAF VECC 202300Z 2100/2206 17007KT 2500 -RA HZ SCT018 BKN100 
     BECMG 2103/2105 3500 -RA HZ 
     TEMPO 2106/2110 1500 TSRA SCT015 FEW25CB OVC080 
     BECMG 2118/2120 2500 -RA HZ 
     BECMG 2202/2204 3500 -RA HZ
       
VEGT 210230Z 00000KT 5000 BR SCT018 BKN100 28/27 Q1008 NOSIG
VEGY 210230Z 09008KT 3500 BR FEW018 29/25 Q1004 NOSIG
VEIM 210300Z 19003KT 3000 BR SCT008 SCT016 BKN100 24/23 Q1013 NOSIG
VEJS 210300Z 09002KT 3500 HZ SCT015 SCT025 BKN100 30/25 Q1005
VELP 210300Z 00000KT 5000 BR FEW008 SCT018 BKN100 25/24 Q1009 NOSIG
VEMN 210300Z 02008KT 3000 RA SCT008 SCT018 FEW025CB OVC090 28/26 Q1009 NOSIG
VEPT 210300Z 11010KT 2500 HZ FEW010 SCT018 BKN100 29/26 Q1004 BECMG 3000 HZ
TAF VEPT 202300Z 2100/2206 11010KT 2000 HZ/-RA FEW010 SCT015 BKN100 
     BECMG 2103/2105 14006KT 3000 HZ SCT015 FEW030CB BKN100 
     BECMG 2106/2108 4000 HZ/-RA SCT015 SCT025 FEW030CB BKN090 
     TEMPO 2109/2113 09010KT 1500 -TSRA 
     BECMG 2114/2116 00000KT 2000 HZ SCT015 BKN100 
     TEMPO 2202/2204 12010KT 1500 -TSRA 
     BECMG 2204/2206 3000 HZ SCT015 SCT025 BKN100
       
VERC 210300Z 16009KT 2500 HZ SCT015 BKN100 25/23 Q1008 NOSIG
VOHY 210300Z 24008KT 4000 HZ SCT010 SCT015 BKN100 25/23 Q1009 NOSIG
VEIM 210300Z 19003KT 3000 BR SCT008 SCT016 BKN100 24/23 Q1013 NOSIG
VIDP 210300Z 13008KT 2500 HZ FEW100 30/25 Q1005 NOSIG
TAF VIDP 202300Z 2100/2206 15008KT 2000 BR FEW040 SCT100 
     BECMG 2105/2107 4000 HZ 
     BECMG 2117/2119 09012KT 3000 HZ BR SCT030 BKN100 
     TEMPO 2120/2124 FEW040TCU 
     BECMG 2200/2202 2000 BR 
     BECMG 2204/2205 3000 BR HZ
       
VAJB 210100Z 00000KT 3000 HZ SCT006 SCT015 OVC080 24/23 Q1003
VIJP 210300Z VRB02KT 3000 HZ FEW100 29/22 Q1006 NOSIG
TAF VIJP 202300Z 2100/2206 VRB02KT 3000 HZ FEW035 SCT100 
     BECMG 2104/2106 12004KT 5000 HZ SCT035 SCT100 
     BECMG 2113/2115 VRB02KT 3000 HZ 
     TEMPO 2118/2124 1500 TSRA FEW035CB 
     BECMG 2204/2205 36003KT 5000 HZ SCT030 SCT090
       
VIJU 210230Z VRB02KT 4000 BR FEW030 SCT100 27/23 Q1005 NOSIG
VEJS 210300Z 09002KT 3500 HZ SCT015 SCT025 BKN100 30/25 Q1005
VIJO 210030Z 27004KT 6000 SCT100 SCT250 27/20 Q1003 NOSIG
VIKO 210300Z 36001KT 6000 FEW030 SCT100 29/23 Q1004 NOSIG
VIBR 210300Z 00000KT 7000 SCT035 20/17 Q1012
VILH 210130Z 00000KT 6000 SKC 09/M04 Q1024 NOSIG RMK AC
VELP 210300Z 00000KT 5000 BR FEW008 SCT018 BKN100 25/24 Q1009 NOSIG
VILK 210230Z 07006KT 3000 BR SCT010 BKN018 FEW030CB OVC090 28/27 Q1003 NOSIG
TAF VILK 202300Z 2100/2206 VRB02KT 2500 RA BR SCT015 SCT025 BKN090 
     TEMPO 2101/2108 1500 TSRA FEW030CB OVC090 
     BECMG 2105/2107 09006KT 4500 RA HZ 
     BECMG 2118/2120 VRB02KT 3000 BR -RA 
     TEMPO 2122/2204 FEW030CB OVC090 
     BECMG 2203/2205 11005KT 3500 RA HZ SCT010 SCT025 BKN090
       
VILD 210300Z 09004KT 2000 BR FEW060 27/23 Q1006
VOMD 210300Z 29004KT 6000 FEW020 30/21 Q1010 NOSIG
TAF VOMD 202300Z 2100/2206 27010KT 4000 BR FEW018 SCT100 
     BECMG 2103/2104 27010G20KT 6000 
     BECMG 2111/2112 27010KT 
     TEMPO 2112/2118 SCT018 FEW025CB BKN080 
     BECMG 2121/2122 4000 BR 
     BECMG 2203/2204 27010G20KT 6000
       
VOML 210300Z 05003KT 3000 BR FEW004 SCT012 FEW025CB 24/23 Q1009 BECMG 5000 BR
TAF VOML 210200Z 2103/2112 11005KT 6000 SCT012 SCT080 
     BECMG 2105/2106 25010KT 
     TEMPO 2109/2112 3000 TSRA RA SCT008 SCT012 FEW025CB BKN080
       
VANP 210300Z 27002KT 2500 HZ FEW010 0SCT020 BKN100 25/24 Q1005 TEMPO 1500 IN HZ/RA
TAF VANP 202300Z 2100/2206 27005KT 3000 RA HZ SCT020 SCT025 BKN080 
     BECMG 2109/2111 31008KT SCT020 SCT025 FEW030CB BKN080 
     BECMG 2200/2202 27005KT 4000 RA HZ SCT020 SCT025 BKN100 
     TEMPO 2112/2116 33010G20KT 1500 TSRA
       
VECC 210300Z 18008KT 3200 HZ SCT018 FEW030CB SCT100 31/26 Q1006 NOSIG
TAF VECC 202300Z 2100/2206 17007KT 2500 -RA HZ SCT018 BKN100 
     BECMG 2103/2105 3500 -RA HZ 
     TEMPO 2106/2110 1500 TSRA SCT015 FEW25CB OVC080 
     BECMG 2118/2120 2500 -RA HZ 
     BECMG 2202/2204 3500 -RA HZ
       
VEPT 210300Z 11010KT 2500 HZ FEW010 SCT018 BKN100 29/26 Q1004 BECMG 3000 HZ
TAF VEPT 202300Z 2100/2206 11010KT 2000 HZ/-RA FEW010 SCT015 BKN100 
     BECMG 2103/2105 14006KT 3000 HZ SCT015 FEW030CB BKN100 
     BECMG 2106/2108 4000 HZ/-RA SCT015 SCT025 FEW030CB BKN090 
     TEMPO 2109/2113 09010KT 1500 -TSRA 
     BECMG 2114/2116 00000KT 2000 HZ SCT015 BKN100 
     TEMPO 2202/2204 12010KT 1500 -TSRA 
     BECMG 2204/2206 3000 HZ SCT015 SCT025 BKN100
       
VORY 210300Z 32005KT 6000 SCT020 BKN100 29/23 Q1006 NOSIG
VIDD 210300Z 14003KT 3000 BR FEW040 SCT100 29/26 Q1004 NOSIG
VISM 210300Z 00000KT 5000 HZ FEW030 SCT040 20/12 Q1015
VISR 210230Z VRB02KT 3500 BR FEW025 16/11 Q1015 BECMG 5000M
VOTV 210300Z VRB03KT 4000 HZ FEW010 SCT015 FEW025TCU 27/25 Q1010 NOSIG
TAF VOTV 202300Z 2100/2206 29005KT 3000 RA/HZ SCT015 BKN080 
     TEMPO 2100/2102 2000 RA/BR 
     BECMG 2105/2106 29010KT 5000 HZ 
     TEMPO 2108/2112 3000 TSRA/RA SCT008 SCT015 FEW025CB BKN080 
     BECMG 2116/2117 30005KT 3000 HZ 
     TEMPO 2200/2202 2000 RA/BR 
     BECMG 2205/2206 29010KT 5000 HZ
       
VOTR 210300Z 28012G22KT 5000 HZ FEW016 28/19 Q1008 NOSIG
TAF VOTR 202300Z 2100/2206 29010KT 4000 BR FEW018 SCT100 
     BECMG 2104/2105 6000 
     BECMG 2106/2107 29010G25KT 
     TEMPO 2112/2118 SCT018 FEW025CB BKN080 
     BECMG 2116/2117 29010KT 
     BECMG 2121/2122 4000 BR 
     BECMG 2204/2205 6000
       
VOTP 210300Z 23005KT 7000 FEW020 29/21 Q1008
VAUD 210300Z 00000KT 6000 NSC 27/20 Q1006 NOSIG
VABO 210300Z 20005 KT 3000 HZ SCT015 SCT020 BKN080 27/23 Q1005 NOSIG
VOBZ 210300Z 00000KT 6000 FEW020 SCT100 28/24 Q1006 NOSIG